• în România
  • Lista ţărilor
  • Pe 7 zile
  • Temperatura apei
  • Hartă satelitară
  • Meteo pe hartă
  • Widget-uri
  • user-avatar
    Intrare

    Meteo pe oră la Gusinoe Stoylo

    Astăzi, 14 Noiembrie, Miercuri

    Timp Temperatura Precipitaţii Vânt Presiune Umiditate
    00:00 -8°C° 0 mm 3 m/s 769 mmHg 33%
    01:00 -8°C° 0 mm 3 m/s 769 mmHg 33%
    02:00 -8°C° 0 mm 3 m/s 769 mmHg 34%
    03:00 -9°C° 0 mm 3 m/s 769 mmHg 38%
    04:00 -9°C° 0 mm 3 m/s 768 mmHg 39%
    05:00 -9°C° 0 mm 3 m/s 768 mmHg 39%
    06:00 -9°C° 0 mm 3 m/s 768 mmHg 40%
    07:00 -9°C° 0 mm 3 m/s 767 mmHg 39%
    08:00 -9°C° 0 mm 4 m/s 767 mmHg 38%
    09:00 -9°C° 0 mm 4 m/s 767 mmHg 37%
    10:00 -8°C° 0 mm 4 m/s 767 mmHg 36%
    11:00 -7°C° 0 mm 4 m/s 766 mmHg 36%
    12:00 -4°C° 0 mm 4 m/s 766 mmHg 35%
    13:00 -4°C° 0 mm 4 m/s 766 mmHg 37%
    14:00 -3°C° 0 mm 4 m/s 765 mmHg 38%
    15:00 -3°C° 0 mm 4 m/s 765 mmHg 40%
    16:00 -4°C° 0 mm 4 m/s 765 mmHg 42%
    17:00 -4°C° 0 mm 4 m/s 765 mmHg 45%
    18:00 -5°C° 0 mm 4 m/s 765 mmHg 47%
    19:00 -5°C° 0 mm 4 m/s 765 mmHg 45%
    20:00 -5°C° 0 mm 4 m/s 765 mmHg 42%
    21:00 -5°C° 0 mm 4 m/s 765 mmHg 39%
    22:00 -7°C° 0 mm 4 m/s 765 mmHg 37%
    23:00 -7°C° 0 mm 4 m/s 765 mmHg 35%

    Mâine, 15 Noiembrie, Joi

    Timp Temperatura Precipitaţii Vânt Presiune Umiditate
    00:00 -6°C° 0 mm 3 m/s 765 mmHg 33%
    01:00 -6°C° 0 mm 3 m/s 765 mmHg 32%
    02:00 -7°C° 0 mm 3 m/s 765 mmHg 32%
    03:00 -7°C° 0 mm 3 m/s 765 mmHg 31%
    04:00 -7°C° 0 mm 3 m/s 765 mmHg 32%
    05:00 -7°C° 0 mm 3 m/s 765 mmHg 32%
    06:00 -7°C° 0 mm 3 m/s 765 mmHg 32%
    07:00 -7°C° 0 mm 3 m/s 765 mmHg 31%
    08:00 -6°C° 0 mm 3 m/s 766 mmHg 30%
    09:00 -6°C° 0 mm 3 m/s 766 mmHg 29%
    10:00 -5°C° 0 mm 3 m/s 766 mmHg 27%
    11:00 -4°C° 0 mm 3 m/s 766 mmHg 25%
    12:00 -2°C° 0 mm 3 m/s 766 mmHg 24%
    13:00 -2°C° 0 mm 3 m/s 766 mmHg 24%
    14:00 -2°C° 0 mm 4 m/s 766 mmHg 24%
    15:00 -2°C° 0 mm 4 m/s 766 mmHg 24%
    16:00 -2°C° 0 mm 3 m/s 767 mmHg 26%
    17:00 -4°C° 0 mm 3 m/s 767 mmHg 28%
    18:00 -5°C° 0 mm 3 m/s 767 mmHg 30%
    19:00 -5°C° 0 mm 3 m/s 767 mmHg 31%
    20:00 -5°C° 0 mm 3 m/s 768 mmHg 31%
    21:00 -5°C° 0 mm 3 m/s 768 mmHg 31%
    22:00 -5°C° 0 mm 3 m/s 768 mmHg 31%
    23:00 -6°C° 0 mm 3 m/s 768 mmHg 31%

    Poimâine, 16 Noiembrie, Vineri

    Timp Temperatura Precipitaţii Vânt Presiune Umiditate
    00:00 -6°C° 0 mm 3 m/s 768 mmHg 32%
    01:00 -6°C° 0 mm 3 m/s 768 mmHg 32%
    02:00 -6°C° 0 mm 3 m/s 769 mmHg 31%
    03:00 -6°C° 0 mm 3 m/s 769 mmHg 31%
    04:00 -6°C° 0 mm 3 m/s 769 mmHg 30%
    05:00 -6°C° 0 mm 3 m/s 769 mmHg 30%
    06:00 -7°C° 0 mm 3 m/s 769 mmHg 29%
    07:00 -6°C° 0 mm 3 m/s 769 mmHg 27%
    08:00 -7°C° 0 mm 4 m/s 770 mmHg 26%
    09:00 -5°C° 0 mm 4 m/s 770 mmHg 24%
    10:00 -4°C° 0 mm 4 m/s 770 mmHg 23%
    11:00 -3°C° 0 mm 4 m/s 770 mmHg 21%
    12:00 -2°C° 0 mm 4 m/s 770 mmHg 19%
    13:00 -2°C° 0 mm 4 m/s 770 mmHg 20%
    14:00 -2°C° 0 mm 4 m/s 770 mmHg 21%
    15:00 0°C° 0 mm 3 m/s 770 mmHg 22%
    16:00 -1°C° 0 mm 3 m/s 770 mmHg 24%
    17:00 -2°C° 0 mm 3 m/s 770 mmHg 26%
    18:00 -4°C° 0 mm 3 m/s 770 mmHg 28%
    19:00 -4°C° 0 mm 3 m/s 770 mmHg 28%
    20:00 -5°C° 0 mm 3 m/s 770 mmHg 28%
    21:00 -5°C° 0 mm 3 m/s 770 mmHg 28%
    22:00 -5°C° 0 mm 3 m/s 770 mmHg 28%
    23:00 -5°C° 0 mm 3 m/s 769 mmHg 28%

    17 Noiembrie, Sâmbătă

    Timp Temperatura Precipitaţii Vânt Presiune Umiditate
    00:00 -5°C° 0 mm 3 m/s 769 mmHg 28%
    01:00 -5°C° 0 mm 3 m/s 769 mmHg 28%
    02:00 -6°C° 0 mm 3 m/s 769 mmHg 28%
    03:00 -6°C° 0 mm 3 m/s 769 mmHg 29%
    04:00 -6°C° 0 mm 3 m/s 769 mmHg 29%
    05:00 -6°C° 0 mm 3 m/s 768 mmHg 29%
    06:00 -6°C° 0 mm 3 m/s 768 mmHg 29%
    07:00 -6°C° 0 mm 3 m/s 768 mmHg 28%
    08:00 -4°C° 0 mm 2 m/s 768 mmHg 27%
    09:00 -4°C° 0 mm 2 m/s 768 mmHg 26%
    10:00 -3°C° 0 mm 2 m/s 768 mmHg 24%
    11:00 -2°C° 0 mm 2 m/s 767 mmHg 22%
    12:00 +1°C° 0 mm 2 m/s 767 mmHg 20%
    13:00 +1°C° 0 mm 2 m/s 766 mmHg 21%
    14:00 +1°C° 0 mm 2 m/s 766 mmHg 23%
    15:00 +2°C° 0 mm 1 m/s 765 mmHg 24%
    16:00 +1°C° 0 mm 1 m/s 765 mmHg 25%
    17:00 0°C° 0 mm 1 m/s 764 mmHg 25%
    18:00 -1°C° 0 mm 1 m/s 764 mmHg 26%
    19:00 -1°C° 0 mm 1 m/s 763 mmHg 25%
    20:00 -1°C° 0 mm 1 m/s 763 mmHg 25%
    21:00 -2°C° 0 mm 0 m/s 762 mmHg 25%
    22:00 -2°C° 0 mm 0 m/s 762 mmHg 25%
    23:00 -2°C° 0 mm 1 m/s 761 mmHg 25%

    18 Noiembrie, Duminică

    Timp Temperatura Precipitaţii Vânt Presiune Umiditate
    00:00 -2°C° 0 mm 1 m/s 760 mmHg 25%
    01:00 -2°C° 0 mm 1 m/s 760 mmHg 26%
    02:00 -2°C° 0 mm 1 m/s 759 mmHg 27%
    03:00 -4°C° 0 mm 2 m/s 759 mmHg 28%
    04:00 -5°C° 0 mm 2 m/s 758 mmHg 29%
    05:00 -5°C° 0 mm 2 m/s 757 mmHg 30%
    06:00 -5°C° 0 mm 2 m/s 757 mmHg 30%
    07:00 -5°C° 0 mm 2 m/s 756 mmHg 30%
    08:00 -4°C° 0 mm 2 m/s 756 mmHg 30%
    09:00 -4°C° 0 mm 2 m/s 755 mmHg 30%
    10:00 -3°C° 0 mm 2 m/s 755 mmHg 29%
    11:00 -2°C° 0 mm 2 m/s 755 mmHg 29%
    12:00 -2°C° 0 mm 3 m/s 754 mmHg 28%
    13:00 -1°C° 0 mm 2 m/s 754 mmHg 30%
    14:00 -1°C° 0 mm 2 m/s 754 mmHg 32%
    15:00 -1°C° 0 mm 2 m/s 754 mmHg 34%
    16:00 -2°C° 0 mm 2 m/s 754 mmHg 39%
    17:00 -2°C° 0 mm 2 m/s 753 mmHg 44%
    18:00 -3°C° 0 mm 2 m/s 753 mmHg 49%
    19:00 -3°C° 0 mm 2 m/s 753 mmHg 56%
    20:00 -3°C° 0 mm 2 m/s 753 mmHg 63%
    21:00 -3°C° 0 mm 2 m/s 753 mmHg 71%
    22:00 -3°C° 0 mm 2 m/s 753 mmHg 76%
    23:00 -3°C° 0 mm 2 m/s 753 mmHg 82%

    19 Noiembrie, Luni

    Timp Temperatura Precipitaţii Vânt Presiune Umiditate
    00:00 -3°C° 0 mm 2 m/s 753 mmHg 88%
    01:00 -3°C° 0 mm 2 m/s 754 mmHg 89%
    02:00 -3°C° 0 mm 2 m/s 754 mmHg 90%
    03:00 -3°C° 0 mm 2 m/s 754 mmHg 92%
    04:00 -3°C° 0.1 mm 2 m/s 754 mmHg 91%
    05:00 -3°C° 0.1 mm 2 m/s 754 mmHg 89%
    06:00 -4°C° 0.1 mm 3 m/s 754 mmHg 88%
    07:00 -4°C° 0.1 mm 3 m/s 755 mmHg 85%
    08:00 -2°C° 0.1 mm 3 m/s 755 mmHg 82%
    09:00 -2°C° 0.1 mm 3 m/s 755 mmHg 79%
    10:00 -2°C° 0.1 mm 3 m/s 756 mmHg 77%
    11:00 -2°C° 0.1 mm 4 m/s 756 mmHg 75%
    12:00 -2°C° 0.1 mm 4 m/s 756 mmHg 73%
    13:00 -1°C° 0.1 mm 3 m/s 756 mmHg 75%
    14:00 -1°C° 0.1 mm 3 m/s 757 mmHg 77%
    15:00 -1°C° 0.1 mm 3 m/s 757 mmHg 78%
    16:00 -1°C° 0.2 mm 3 m/s 757 mmHg 82%
    17:00 -1°C° 0.2 mm 3 m/s 757 mmHg 85%
    18:00 -1°C° 0.2 mm 3 m/s 757 mmHg 89%
    19:00 -1°C° 0.2 mm 3 m/s 757 mmHg 89%
    20:00 -2°C° 0.2 mm 3 m/s 758 mmHg 88%
    21:00 -2°C° 0.2 mm 3 m/s 758 mmHg 88%
    22:00 -2°C° 0.1 mm 3 m/s 758 mmHg 87%
    23:00 -2°C° 0.1 mm 3 m/s 758 mmHg 86%
    Arată mai mult